Time,TemperatureF,DewpointF,PressureIn,WindDirection,WindDirectionDegrees,WindSpeedMPH,WindSpeedGustMPH,Humidity,HourlyPrecipIn,Conditions,Clouds,dailyrainin,SoftwareType,DateUTC
2013-07-27 00:00:00,76.5,74.1,30.02,NNE,23,0.0,0.0,92,0.00,,,1.29,WUHU216HW,2013-07-27 04:00:00,
2013-07-27 00:05:00,76.7,74.5,30.02,NW,315,0.0,0.0,93,0.00,,,0.00,WUHU216HW,2013-07-27 04:05:00,
2013-07-27 00:10:00,76.7,74.5,30.02,West,270,0.4,1.1,93,0.00,,,0.00,WUHU216HW,2013-07-27 04:10:00,
2013-07-27 00:15:00,76.7,74.5,30.02,West,270,0.0,1.1,93,0.00,,,0.00,WUHU216HW,2013-07-27 04:15:00,
2013-07-27 00:20:00,76.7,74.5,30.03,West,270,0.0,0.0,93,0.00,,,0.00,WUHU216HW,2013-07-27 04:20:00,
2013-07-27 00:25:00,76.7,74.5,30.03,NNW,338,0.7,0.7,93,0.00,,,0.00,WUHU216HW,2013-07-27 04:25:00,
2013-07-27 00:30:00,76.7,74.5,30.02,NNW,338,1.1,1.1,93,0.00,,,0.00,WUHU216HW,2013-07-27 04:30:00,
2013-07-27 00:35:00,76.5,74.3,30.03,NNW,338,0.4,1.1,93,0.00,,,0.00,WUHU216HW,2013-07-27 04:35:00,
2013-07-27 00:40:00,76.5,74.3,30.02,NNW,338,0.4,0.9,93,0.00,,,0.00,WUHU216HW,2013-07-27 04:40:00,
2013-07-27 00:45:00,76.5,74.3,30.02,NNW,338,0.0,0.4,93,0.00,,,0.00,WUHU216HW,2013-07-27 04:45:00,
2013-07-27 00:50:00,76.3,74.2,30.02,NNW,338,0.4,0.4,93,0.00,,,0.00,WUHU216HW,2013-07-27 04:50:00,
2013-07-27 00:55:00,76.3,74.2,30.02,NNW,338,0.0,0.4,93,0.00,,,0.00,WUHU216HW,2013-07-27 04:55:00,
2013-07-27 01:00:00,76.3,74.2,30.01,NNW,338,0.0,0.4,93,0.00,,,0.00,WUHU216HW,2013-07-27 05:00:00,
2013-07-27 01:05:00,76.1,74.0,30.01,NNE,23,1.1,1.1,93,0.00,,,0.00,WUHU216HW,2013-07-27 05:05:00,
2013-07-27 01:10:00,76.1,74.0,30.01,North,0,0.4,1.1,93,0.00,,,0.00,WUHU216HW,2013-07-27 05:10:00,
2013-07-27 01:15:00,76.1,74.0,30.01,North,0,0.0,0.9,93,0.00,,,0.00,WUHU216HW,2013-07-27 05:15:00,
2013-07-27 01:20:00,76.1,74.0,30.01,North,0,0.0,0.0,93,0.00,,,0.00,WUHU216HW,2013-07-27 05:20:00,
2013-07-27 01:25:00,76.1,74.0,30.00,North,0,0.0,0.0,93,0.00,,,0.00,WUHU216HW,2013-07-27 05:25:00,
2013-07-27 01:30:00,76.0,73.8,30.00,North,0,0.0,0.0,93,0.00,,,0.00,WUHU216HW,2013-07-27 05:30:00,
2013-07-27 01:36:00,76.0,73.8,30.00,North,0,0.2,0.7,93,0.00,,,0.00,WUHU216HW,2013-07-27 05:36:00,
2013-07-27 01:41:00,76.0,73.8,30.00,North,0,0.0,0.7,93,0.00,,,0.00,WUHU216HW,2013-07-27 05:41:00,
2013-07-27 01:46:00,76.0,73.8,30.00,North,0,0.0,0.4,93,0.00,,,0.00,WUHU216HW,2013-07-27 05:46:00,
2013-07-27 01:51:00,75.8,73.6,29.99,NNE,23,0.0,0.4,93,0.00,,,0.00,WUHU216HW,2013-07-27 05:51:00,
2013-07-27 01:56:00,75.8,73.6,29.99,North,0,0.0,0.4,93,0.00,,,0.00,WUHU216HW,2013-07-27 05:56:00,
2013-07-27 02:01:00,75.8,73.6,29.99,North,0,0.0,0.0,93,0.00,,,0.00,WUHU216HW,2013-07-27 06:01:00,
2013-07-27 02:06:00,75.8,73.6,29.99,North,0,0.0,0.0,93,0.00,,,0.00,WUHU216HW,2013-07-27 06:06:00,
2013-07-27 02:11:00,75.8,73.6,29.98,North,0,0.0,0.0,93,0.00,,,0.00,WUHU216HW,2013-07-27 06:11:00,
2013-07-27 02:16:00,75.8,73.6,29.98,North,0,0.0,0.0,93,0.00,,,0.00,WUHU216HW,2013-07-27 06:16:00,
2013-07-27 02:21:00,75.8,74.0,29.98,North,0,0.0,0.0,94,0.00,,,0.00,WUHU216HW,2013-07-27 06:21:00,
2013-07-27 02:26:00,75.8,74.0,29.98,North,0,0.0,0.0,94,0.00,,,0.00,WUHU216HW,2013-07-27 06:26:00,
2013-07-27 02:31:00,75.8,74.0,29.98,North,0,0.0,0.0,94,0.00,,,0.00,WUHU216HW,2013-07-27 06:31:00,
2013-07-27 02:36:00,75.8,74.0,29.98,North,0,0.0,0.0,94,0.00,,,0.00,WUHU216HW,2013-07-27 06:36:00,
2013-07-27 02:41:00,75.6,73.8,29.98,North,0,0.0,0.0,94,0.00,,,0.00,WUHU216HW,2013-07-27 06:41:00,
2013-07-27 02:46:00,75.6,73.8,29.98,North,0,0.0,0.0,94,0.00,,,0.00,WUHU216HW,2013-07-27 06:46:00,
2013-07-27 02:51:00,75.4,73.6,29.98,North,0,0.0,0.9,94,0.00,,,0.00,WUHU216HW,2013-07-27 06:51:00,
2013-07-27 02:56:00,75.4,73.6,29.98,North,0,0.0,0.9,94,0.00,,,0.00,WUHU216HW,2013-07-27 06:56:00,
2013-07-27 03:01:00,75.4,73.6,29.98,North,0,0.0,0.0,94,0.00,,,0.00,WUHU216HW,2013-07-27 07:01:00,
2013-07-27 03:06:00,75.4,73.6,29.98,North,0,0.0,0.0,94,0.00,,,0.00,WUHU216HW,2013-07-27 07:06:00,
2013-07-27 03:11:00,75.2,73.5,29.97,North,0,0.0,0.4,94,0.00,,,0.00,WUHU216HW,2013-07-27 07:11:00,
2013-07-27 03:16:00,75.2,73.5,29.97,NNE,23,1.1,1.1,94,0.00,,,0.00,WUHU216HW,2013-07-27 07:16:00,
2013-07-27 03:21:00,75.1,73.3,29.97,NNE,23,0.4,1.1,94,0.00,,,0.00,WUHU216HW,2013-07-27 07:21:00,
2013-07-27 03:26:00,75.1,73.3,29.97,NNE,23,1.1,1.1,94,0.00,,,0.00,WUHU216HW,2013-07-27 07:26:00,
2013-07-27 03:31:00,74.9,73.1,29.98,NNE,23,1.1,1.1,94,0.00,,,0.00,WUHU216HW,2013-07-27 07:31:00,
2013-07-27 03:36:00,74.9,73.1,29.98,NNE,23,1.1,1.1,94,0.00,,,0.00,WUHU216HW,2013-07-27 07:36:00,
2013-07-27 03:41:00,74.9,73.1,29.98,NNE,23,0.7,1.1,94,0.00,,,0.00,WUHU216HW,2013-07-27 07:41:00,
2013-07-27 03:46:00,74.9,73.1,29.97,NNE,23,0.0,1.1,94,0.00,,,0.00,WUHU216HW,2013-07-27 07:46:00,
2013-07-27 03:51:00,74.9,73.1,29.97,NNE,23,0.0,0.7,94,0.00,,,0.00,WUHU216HW,2013-07-27 07:51:00,
2013-07-27 03:56:00,74.7,72.9,29.97,NNE,23,0.0,0.0,94,0.00,,,0.00,WUHU216HW,2013-07-27 07:56:00,
2013-07-27 04:01:00,74.7,72.9,29.97,NNE,23,0.0,0.0,94,0.00,,,0.00,WUHU216HW,2013-07-27 08:01:00,
2013-07-27 04:06:00,74.7,72.9,29.97,NNE,23,0.0,0.0,94,0.00,,,0.00,WUHU216HW,2013-07-27 08:06:00,
2013-07-27 04:11:00,74.7,72.9,29.97,WNW,293,0.7,0.7,94,0.00,,,0.00,WUHU216HW,2013-07-27 08:11:00,
2013-07-27 04:16:00,74.7,72.9,29.98,WNW,293,0.0,0.7,94,0.00,,,0.00,WUHU216HW,2013-07-27 08:16:00,
2013-07-27 04:21:00,74.7,72.9,29.97,WNW,293,0.0,0.4,94,0.00,,,0.00,WUHU216HW,2013-07-27 08:21:00,
2013-07-27 04:26:00,74.5,72.7,29.97,WNW,293,0.0,0.4,94,0.00,,,0.00,WUHU216HW,2013-07-27 08:26:00,
2013-07-27 04:31:00,74.5,72.7,29.97,WNW,293,0.0,0.0,94,0.00,,,0.00,WUHU216HW,2013-07-27 08:31:00,
2013-07-27 04:36:00,74.5,72.7,29.97,WNW,293,0.4,0.4,94,0.00,,,0.00,WUHU216HW,2013-07-27 08:36:00,
2013-07-27 04:41:00,74.5,72.7,29.97,WNW,293,0.0,0.4,94,0.00,,,0.00,WUHU216HW,2013-07-27 08:41:00,
2013-07-27 04:46:00,74.5,72.7,29.97,WNW,293,0.0,0.2,94,0.00,,,0.00,WUHU216HW,2013-07-27 08:46:00,
2013-07-27 04:51:00,74.5,72.7,29.97,WNW,293,0.0,0.0,94,0.00,,,0.00,WUHU216HW,2013-07-27 08:51:00,
2013-07-27 04:56:00,74.3,72.8,29.97,WNW,293,0.0,0.0,95,0.00,,,0.00,WUHU216HW,2013-07-27 08:56:00,
2013-07-27 05:01:00,74.3,72.8,29.97,WNW,293,0.0,0.0,95,0.00,,,0.00,WUHU216HW,2013-07-27 09:01:00,
2013-07-27 05:06:00,74.3,72.8,29.97,WNW,293,0.0,0.0,95,0.00,,,0.00,WUHU216HW,2013-07-27 09:06:00,
2013-07-27 05:11:00,74.3,72.8,29.97,WNW,293,0.0,0.0,95,0.00,,,0.00,WUHU216HW,2013-07-27 09:11:00,
2013-07-27 05:16:00,74.3,72.8,29.97,North,0,1.1,1.1,95,0.00,,,0.00,WUHU216HW,2013-07-27 09:16:00,
2013-07-27 05:21:00,74.2,72.6,29.97,North,0,0.0,1.1,95,0.00,,,0.00,WUHU216HW,2013-07-27 09:21:00,
2013-07-27 05:26:00,74.2,72.6,29.96,North,0,0.2,0.9,95,0.00,,,0.00,WUHU216HW,2013-07-27 09:26:00,
2013-07-27 05:31:00,74.2,72.6,29.97,North,0,0.0,0.2,95,0.00,,,0.00,WUHU216HW,2013-07-27 09:31:00,
2013-07-27 05:36:00,74.2,72.6,29.96,North,0,0.0,0.7,95,0.00,,,0.00,WUHU216HW,2013-07-27 09:36:00,
2013-07-27 05:41:00,74.2,72.6,29.96,North,0,0.0,0.7,95,0.00,,,0.00,WUHU216HW,2013-07-27 09:41:00,
2013-07-27 05:46:00,74.2,72.6,29.96,North,0,0.7,0.7,95,0.00,,,0.00,WUHU216HW,2013-07-27 09:46:00,
2013-07-27 05:51:00,74.0,72.5,29.96,North,0,0.0,0.7,95,0.00,,,0.00,WUHU216HW,2013-07-27 09:51:00,
2013-07-27 05:56:00,74.0,72.5,29.96,North,0,0.0,0.7,95,0.00,,,0.00,WUHU216HW,2013-07-27 09:56:00,
2013-07-27 06:01:00,74.0,72.5,29.97,North,0,0.0,0.0,95,0.00,,,0.00,WUHU216HW,2013-07-27 10:01:00,
2013-07-27 06:06:00,74.0,72.5,29.97,North,0,0.0,0.0,95,0.00,,,0.00,WUHU216HW,2013-07-27 10:06:00,
2013-07-27 06:11:00,74.2,72.6,29.97,North,0,0.0,0.0,95,0.00,,,0.00,WUHU216HW,2013-07-27 10:11:00,
2013-07-27 06:16:00,74.2,72.6,29.97,North,0,0.0,0.0,95,0.00,,,0.00,WUHU216HW,2013-07-27 10:16:00,
2013-07-27 06:21:00,74.2,72.6,29.97,North,0,0.0,0.0,95,0.00,,,0.00,WUHU216HW,2013-07-27 10:21:00,
2013-07-27 06:26:00,74.2,72.6,29.97,North,0,0.0,0.0,95,0.00,,,0.00,WUHU216HW,2013-07-27 10:26:00,
2013-07-27 06:31:00,74.2,72.6,29.97,North,0,0.0,0.0,95,0.00,,,0.00,WUHU216HW,2013-07-27 10:31:00,
2013-07-27 06:36:00,74.3,72.8,29.97,North,0,0.0,0.0,95,0.00,,,0.00,WUHU216HW,2013-07-27 10:36:00,
2013-07-27 06:41:00,74.3,72.8,29.98,North,0,0.0,0.0,95,0.00,,,0.00,WUHU216HW,2013-07-27 10:41:00,
2013-07-27 06:46:00,74.3,72.8,29.98,North,0,0.0,0.0,95,0.00,,,0.00,WUHU216HW,2013-07-27 10:46:00,
2013-07-27 06:51:00,74.3,72.8,29.98,North,0,0.0,0.0,95,0.00,,,0.00,WUHU216HW,2013-07-27 10:51:00,
2013-07-27 06:56:00,74.3,72.8,29.98,North,0,0.0,0.0,95,0.00,,,0.00,WUHU216HW,2013-07-27 10:56:00,
2013-07-27 07:13:00,74.3,72.8,29.98,NNE,23,0.4,0.4,95,0.00,,,0.00,WUHU216HW,2013-07-27 11:13:00,
2013-07-27 07:18:00,74.3,72.8,29.98,NNE,23,0.4,0.4,95,0.00,,,0.00,WUHU216HW,2013-07-27 11:18:00,
2013-07-27 08:07:00,75.2,73.7,29.98,SSE,158,0.0,0.0,95,0.00,,,0.00,WUHU216HW,2013-07-27 12:07:00,
2013-07-27 08:17:00,75.6,74.1,29.98,SSE,158,0.0,0.0,95,0.00,,,0.00,WUHU216HW,2013-07-27 12:17:00,
2013-07-27 08:22:00,76.0,74.4,29.99,SSE,158,0.0,0.0,95,0.00,,,0.00,WUHU216HW,2013-07-27 12:22:00,
2013-07-27 08:27:00,76.1,74.6,29.99,SSW,203,1.3,1.3,95,0.00,,,0.00,WUHU216HW,2013-07-27 12:27:00,
2013-07-27 08:32:00,76.1,74.6,29.99,SSW,203,1.3,1.3,95,0.00,,,0.00,WUHU216HW,2013-07-27 12:32:00,
2013-07-27 08:47:00,77.0,75.5,29.99,SSW,203,0.2,0.2,95,0.00,,,0.00,WUHU216HW,2013-07-27 12:47:00,
2013-07-27 08:52:00,77.6,76.1,29.99,SSW,203,0.0,0.4,95,0.00,,,0.00,WUHU216HW,2013-07-27 12:52:00,
2013-07-27 08:57:00,77.6,76.1,29.99,SSW,203,0.0,0.4,95,0.00,,,0.00,WUHU216HW,2013-07-27 12:57:00,
2013-07-27 09:07:00,78.5,77.0,30.00,West,270,0.0,0.4,95,0.00,,,0.00,WUHU216HW,2013-07-27 13:07:00,
2013-07-27 09:12:00,78.7,77.1,30.00,SSE,158,0.9,0.9,95,0.00,,,0.00,WUHU216HW,2013-07-27 13:12:00,
2013-07-27 09:17:00,79.2,77.1,30.00,SSE,158,0.7,0.9,93,0.00,,,0.00,WUHU216HW,2013-07-27 13:17:00,
2013-07-27 09:22:00,79.2,77.1,30.00,SSE,158,0.7,0.7,93,0.00,,,0.00,WUHU216HW,2013-07-27 13:22:00,
2013-07-27 09:27:00,79.4,76.9,30.00,South,180,1.1,1.1,92,0.00,,,0.00,WUHU216HW,2013-07-27 13:27:00,
2013-07-27 09:32:00,79.7,77.2,29.99,WNW,293,0.9,1.1,92,0.00,,,0.00,WUHU216HW,2013-07-27 13:32:00,
2013-07-27 09:37:00,80.1,77.2,30.00,WSW,248,0.7,0.9,91,0.00,,,0.00,WUHU216HW,2013-07-27 13:37:00,
2013-07-27 09:42:00,80.3,77.0,30.00,SSE,158,0.7,2.7,90,0.00,,,0.00,WUHU216HW,2013-07-27 13:42:00,
2013-07-27 09:47:00,80.3,77.0,30.00,SSE,158,0.7,2.7,90,0.00,,,0.00,WUHU216HW,2013-07-27 13:47:00,
2013-07-27 09:52:00,80.6,77.0,30.00,South,180,1.1,1.1,89,0.00,,,0.00,WUHU216HW,2013-07-27 13:52:00,
2013-07-27 09:57:00,81.0,77.8,29.99,SSE,158,0.2,1.1,90,0.00,,,0.00,WUHU216HW,2013-07-27 13:57:00,
2013-07-27 10:02:00,81.7,77.1,30.00,East,90,0.4,1.3,86,0.00,,,0.00,WUHU216HW,2013-07-27 14:02:00,
2013-07-27 10:07:00,82.1,77.9,30.00,WSW,248,2.7,2.7,87,0.00,,,0.00,WUHU216HW,2013-07-27 14:07:00,
2013-07-27 10:12:00,82.4,77.9,30.00,East,90,0.9,2.7,86,0.00,,,0.00,WUHU216HW,2013-07-27 14:12:00,
2013-07-27 10:17:00,82.3,77.0,30.00,SSE,158,0.9,1.1,84,0.00,,,0.00,WUHU216HW,2013-07-27 14:17:00,
2013-07-27 10:22:00,82.3,77.0,30.00,SSE,158,0.9,0.9,84,0.00,,,0.00,WUHU216HW,2013-07-27 14:22:00,
2013-07-27 10:27:00,82.3,77.0,30.00,SSE,158,0.9,1.6,84,0.00,,,0.00,WUHU216HW,2013-07-27 14:27:00,
2013-07-27 10:32:00,82.4,76.5,30.00,West,270,0.7,1.6,82,0.00,,,0.00,WUHU216HW,2013-07-27 14:32:00,
2013-07-27 10:37:00,82.3,76.6,30.00,South,180,0.4,1.3,83,0.00,,,0.00,WUHU216HW,2013-07-27 14:37:00,
2013-07-27 10:42:00,82.3,76.6,30.00,South,180,0.7,3.1,83,0.00,,,0.00,WUHU216HW,2013-07-27 14:42:00,
2013-07-27 10:47:00,82.4,77.1,30.00,West,270,1.1,3.1,84,0.00,,,0.00,WUHU216HW,2013-07-27 14:47:00,
2013-07-27 10:52:00,82.8,77.5,30.00,SSW,203,1.8,1.8,84,0.00,,,0.00,WUHU216HW,2013-07-27 14:52:00,
2013-07-27 10:57:00,83.3,78.0,30.00,WNW,293,0.0,1.8,84,0.00,,,0.00,WUHU216HW,2013-07-27 14:57:00,
2013-07-27 11:02:00,84.2,78.8,30.00,West,270,0.2,2.0,84,0.00,,,0.00,WUHU216HW,2013-07-27 15:02:00,
2013-07-27 11:07:00,84.6,78.5,29.99,South,180,1.6,2.5,82,0.00,,,0.00,WUHU216HW,2013-07-27 15:07:00,
2013-07-27 11:12:00,84.8,77.9,30.00,SE,135,0.4,2.5,80,0.00,,,0.00,WUHU216HW,2013-07-27 15:12:00,
2013-07-27 11:17:00,85.0,78.1,29.99,West,270,0.4,3.6,80,0.00,,,0.00,WUHU216HW,2013-07-27 15:17:00,
2013-07-27 11:22:00,85.1,78.7,30.00,SW,225,0.4,3.6,81,0.00,,,0.00,WUHU216HW,2013-07-27 15:22:00,
2013-07-27 11:27:00,85.3,78.5,29.99,SW,225,2.0,2.5,80,0.00,,,0.00,WUHU216HW,2013-07-27 15:27:00,
2013-07-27 11:32:00,85.9,78.7,29.99,SSW,203,0.4,4.0,79,0.00,,,0.00,WUHU216HW,2013-07-27 15:32:00,
2013-07-27 11:37:00,86.4,78.4,29.99,South,180,1.1,4.0,77,0.00,,,0.00,WUHU216HW,2013-07-27 15:37:00,
2013-07-27 11:42:00,86.8,78.3,29.99,SW,225,2.7,3.1,76,0.00,,,0.00,WUHU216HW,2013-07-27 15:42:00,
2013-07-27 11:47:00,86.8,78.3,29.99,South,180,0.2,2.7,76,0.00,,,0.00,WUHU216HW,2013-07-27 15:47:00,
2013-07-27 11:52:00,86.8,78.3,29.99,South,180,0.2,1.6,76,0.00,,,0.00,WUHU216HW,2013-07-27 15:52:00,
2013-07-27 11:57:00,87.1,78.2,29.98,NNW,338,1.1,2.5,75,0.00,,,0.00,WUHU216HW,2013-07-27 15:57:00,
2013-07-27 12:02:00,88.0,78.3,29.98,WSW,248,2.5,2.7,73,0.00,,,0.00,WUHU216HW,2013-07-27 16:02:00,
2013-07-27 12:07:00,88.4,78.7,29.98,SSW,203,2.5,3.1,73,0.00,,,0.00,WUHU216HW,2013-07-27 16:07:00,
2013-07-27 12:12:00,87.8,78.1,29.98,WSW,248,0.0,3.1,73,0.00,,,0.00,WUHU216HW,2013-07-27 16:12:00,
2013-07-27 12:17:00,87.3,78.0,29.98,WSW,248,0.0,1.8,74,0.00,,,0.00,WUHU216HW,2013-07-27 16:17:00,
2013-07-27 12:22:00,86.6,78.1,29.98,SSW,203,0.4,1.8,76,0.02,,,0.01,WUHU216HW,2013-07-27 16:22:00,
2013-07-27 12:27:00,85.9,77.9,29.98,NW,315,0.2,1.8,77,0.04,,,0.04,WUHU216HW,2013-07-27 16:27:00,
2013-07-27 12:32:00,85.1,78.0,29.98,NNW,338,0.9,0.9,79,0.05,,,0.05,WUHU216HW,2013-07-27 16:32:00,
2013-07-27 12:37:00,85.3,78.5,29.98,NNW,338,0.0,0.9,80,0.05,,,0.05,WUHU216HW,2013-07-27 16:37:00,
2013-07-27 12:42:00,85.7,79.2,29.98,NNW,338,0.0,0.9,81,0.05,,,0.05,WUHU216HW,2013-07-27 16:42:00,
2013-07-27 12:47:00,85.7,79.6,29.98,NNW,338,0.0,0.0,82,0.05,,,0.05,WUHU216HW,2013-07-27 16:47:00,
2013-07-27 12:52:00,86.4,80.3,29.97,NNW,338,0.0,0.0,82,0.05,,,0.05,WUHU216HW,2013-07-27 16:52:00,
2013-07-27 12:57:00,86.2,80.1,29.97,NNW,338,0.0,0.0,82,0.05,,,0.05,WUHU216HW,2013-07-27 16:57:00,
2013-07-27 13:02:00,86.2,80.1,29.96,North,0,0.0,1.1,82,0.05,,,0.05,WUHU216HW,2013-07-27 17:02:00,
2013-07-27 13:07:00,86.2,80.1,29.96,NW,315,0.0,1.1,82,0.05,,,0.05,WUHU216HW,2013-07-27 17:07:00,
2013-07-27 13:12:00,86.4,80.3,29.96,NNW,338,0.0,1.1,82,0.05,,,0.05,WUHU216HW,2013-07-27 17:12:00,
2013-07-27 13:17:00,86.8,79.9,29.96,West,270,0.0,1.1,80,0.04,,,0.05,WUHU216HW,2013-07-27 17:17:00,
2013-07-27 13:22:00,87.3,80.5,29.96,West,270,1.1,2.5,80,0.02,,,0.05,WUHU216HW,2013-07-27 17:22:00,
2013-07-27 13:27:00,87.8,80.6,29.96,WNW,293,0.0,2.5,79,0.00,,,0.05,WUHU216HW,2013-07-27 17:27:00,
2013-07-27 13:32:00,88.6,80.8,29.95,NW,315,0.0,1.8,78,0.00,,,0.05,WUHU216HW,2013-07-27 17:32:00,
2013-07-27 13:37:00,89.3,81.1,29.95,NW,315,0.7,1.1,77,0.00,,,0.05,WUHU216HW,2013-07-27 17:37:00,
2013-07-27 13:42:00,90.2,81.2,29.95,North,0,0.2,2.2,75,0.00,,,0.05,WUHU216HW,2013-07-27 17:42:00,
2013-07-27 13:47:00,90.0,80.6,29.95,WSW,248,0.7,2.9,74,0.00,,,0.05,WUHU216HW,2013-07-27 17:47:00,
2013-07-27 13:52:00,89.6,79.8,29.95,NNW,338,0.9,2.9,73,0.00,,,0.05,WUHU216HW,2013-07-27 17:52:00,
2013-07-27 13:57:00,90.0,80.6,29.94,WNW,293,0.7,1.1,74,0.00,,,0.05,WUHU216HW,2013-07-27 17:57:00,
2013-07-27 14:02:00,89.8,78.9,29.93,SW,225,2.5,2.5,70,0.00,,,0.05,WUHU216HW,2013-07-27 18:02:00,
2013-07-27 14:07:00,90.2,79.9,29.93,NE,45,1.8,2.5,72,0.00,,,0.05,WUHU216HW,2013-07-27 18:07:00,
2013-07-27 14:12:00,90.4,79.8,29.93,NE,45,0.2,2.5,71,0.00,,,0.05,WUHU216HW,2013-07-27 18:12:00,
2013-07-27 14:17:00,90.7,80.0,29.93,SW,225,0.0,2.2,71,0.00,,,0.05,WUHU216HW,2013-07-27 18:17:00,
2013-07-27 14:22:00,90.9,79.8,29.94,SW,225,1.8,3.1,70,0.00,,,0.05,WUHU216HW,2013-07-27 18:22:00,
2013-07-27 14:28:00,90.2,78.7,29.93,ENE,68,1.1,3.1,69,0.00,,,0.05,WUHU216HW,2013-07-27 18:28:00,
2013-07-27 14:33:00,89.6,78.2,29.93,NE,45,0.4,2.5,69,0.00,,,0.05,WUHU216HW,2013-07-27 18:33:00,
2013-07-27 14:38:00,89.5,78.8,29.93,North,0,0.9,2.0,71,0.00,,,0.05,WUHU216HW,2013-07-27 18:38:00,
2013-07-27 14:43:00,89.5,78.8,29.93,North,0,0.0,2.0,71,0.00,,,0.05,WUHU216HW,2013-07-27 18:43:00,
2013-07-27 14:48:00,89.1,78.9,29.93,North,0,0.7,1.1,72,0.00,,,0.05,WUHU216HW,2013-07-27 18:48:00,
2013-07-27 14:53:00,88.6,78.9,29.93,North,0,0.0,1.1,73,0.00,,,0.05,WUHU216HW,2013-07-27 18:53:00,
2013-07-27 14:58:00,87.8,78.1,29.93,North,0,1.3,1.3,73,0.00,,,0.05,WUHU216HW,2013-07-27 18:58:00,
2013-07-27 15:03:00,87.3,78.0,29.93,North,0,0.7,1.3,74,0.00,,,0.05,WUHU216HW,2013-07-27 19:03:00,
2013-07-27 15:08:00,86.8,78.3,29.93,North,0,0.0,1.3,76,0.00,,,0.05,WUHU216HW,2013-07-27 19:08:00,
2013-07-27 15:13:00,85.7,77.2,29.92,NNW,338,0.4,4.0,76,0.00,,,0.05,WUHU216HW,2013-07-27 19:13:00,
2013-07-27 15:18:00,83.9,75.5,29.93,WSW,248,3.4,4.0,76,0.01,,,0.06,WUHU216HW,2013-07-27 19:18:00,
2013-07-27 15:23:00,81.9,74.4,29.94,South,180,2.5,4.0,78,0.02,,,0.07,WUHU216HW,2013-07-27 19:23:00,
2013-07-27 15:28:00,80.1,74.2,29.95,SE,135,1.6,3.8,82,0.03,,,0.07,WUHU216HW,2013-07-27 19:28:00,
2013-07-27 15:33:00,78.1,72.9,29.95,SSE,158,1.8,3.8,84,0.04,,,0.09,WUHU216HW,2013-07-27 19:33:00,
2013-07-27 15:38:00,77.4,72.9,29.93,ESE,113,1.1,3.4,86,0.04,,,0.09,WUHU216HW,2013-07-27 19:38:00,
2013-07-27 15:43:00,76.9,72.4,29.93,SSE,158,1.3,1.8,86,0.04,,,0.09,WUHU216HW,2013-07-27 19:43:00,
2013-07-27 15:48:00,76.9,72.7,29.92,South,180,0.7,1.6,87,0.04,,,0.09,WUHU216HW,2013-07-27 19:48:00,
2013-07-27 15:53:00,77.2,73.1,29.92,SE,135,1.1,1.6,87,0.04,,,0.09,WUHU216HW,2013-07-27 19:53:00,
2013-07-27 15:58:00,77.2,73.1,29.92,SW,225,0.0,1.1,87,0.04,,,0.09,WUHU216HW,2013-07-27 19:58:00,
2013-07-27 16:03:00,77.4,73.3,29.91,ESE,113,0.0,0.7,87,0.04,,,0.09,WUHU216HW,2013-07-27 20:03:00,
2013-07-27 16:08:00,77.6,73.4,29.91,SE,135,0.4,0.4,87,0.04,,,0.09,WUHU216HW,2013-07-27 20:08:00,
2013-07-27 16:13:00,77.9,73.8,29.91,East,90,0.7,1.1,87,0.03,,,0.09,WUHU216HW,2013-07-27 20:13:00,
2013-07-27 16:18:00,78.1,74.0,29.91,NE,45,1.1,1.1,87,0.03,,,0.09,WUHU216HW,2013-07-27 20:18:00,
2013-07-27 16:23:00,78.7,74.5,29.90,ENE,68,1.1,1.1,87,0.02,,,0.09,WUHU216HW,2013-07-27 20:23:00,
2013-07-27 16:28:00,78.7,74.5,29.90,ENE,68,1.1,1.1,87,0.02,,,0.09,WUHU216HW,2013-07-27 20:28:00,
2013-07-27 16:35:00,79.6,75.3,29.91,ENE,68,0.7,0.7,87,0.00,,,0.09,WUHU216HW,2013-07-27 20:35:00,
2013-07-27 16:40:00,80.3,75.7,29.90,South,180,2.7,2.7,86,0.00,,,0.09,WUHU216HW,2013-07-27 20:40:00,
2013-07-27 16:45:00,80.3,75.7,29.90,South,180,2.7,2.7,86,0.00,,,0.09,WUHU216HW,2013-07-27 20:45:00,
2013-07-27 16:50:00,81.0,76.1,29.91,SSE,158,3.1,3.1,85,0.00,,,0.09,WUHU216HW,2013-07-27 20:50:00,
2013-07-27 16:55:00,81.4,76.4,29.92,SE,135,0.2,3.1,85,0.00,,,0.09,WUHU216HW,2013-07-27 20:55:00,
2013-07-27 17:00:00,81.7,76.8,29.92,South,180,1.6,1.6,85,0.00,,,0.09,WUHU216HW,2013-07-27 21:00:00,
2013-07-27 17:05:00,82.1,76.4,29.92,East,90,0.0,1.6,83,0.00,,,0.09,WUHU216HW,2013-07-27 21:05:00,
2013-07-27 17:10:00,82.1,76.4,29.92,East,90,0.0,1.1,83,0.00,,,0.09,WUHU216HW,2013-07-27 21:10:00,
2013-07-27 17:31:00,83.2,77.1,29.91,West,270,0.7,0.7,82,0.00,,,0.09,WUHU216HW,2013-07-27 21:31:00,
2013-07-27 17:36:00,83.3,77.0,29.91,NNE,23,0.7,0.7,81,0.00,,,0.09,WUHU216HW,2013-07-27 21:36:00,
2013-07-27 17:41:00,83.7,77.6,29.92,ENE,68,0.7,0.7,82,0.00,,,0.09,WUHU216HW,2013-07-27 21:41:00,
2013-07-27 17:46:00,83.9,77.0,29.92,ENE,68,0.2,0.7,80,0.00,,,0.09,WUHU216HW,2013-07-27 21:46:00,
2013-07-27 17:52:00,83.9,76.7,29.91,SSE,158,2.0,2.0,79,0.00,,,0.09,WUHU216HW,2013-07-27 21:52:00,
2013-07-27 17:57:00,83.9,76.7,29.91,East,90,0.9,2.2,79,0.00,,,0.09,WUHU216HW,2013-07-27 21:57:00,
2013-07-27 18:02:00,83.3,75.8,29.92,NNW,338,0.4,2.2,78,0.00,,,0.09,WUHU216HW,2013-07-27 22:02:00,
2013-07-27 18:07:00,83.2,76.4,29.91,SE,135,2.5,2.5,80,0.00,,,0.09,WUHU216HW,2013-07-27 22:07:00,
2013-07-27 18:12:00,83.0,76.2,29.92,East,90,0.9,2.5,80,0.00,,,0.09,WUHU216HW,2013-07-27 22:12:00,
2013-07-27 18:17:00,82.8,76.8,29.92,SE,135,0.7,3.1,82,0.00,,,0.09,WUHU216HW,2013-07-27 22:17:00,
2013-07-27 18:22:00,82.8,76.4,29.92,SSW,203,0.7,3.1,81,0.00,,,0.09,WUHU216HW,2013-07-27 22:22:00,
2013-07-27 18:27:00,82.6,76.3,29.92,ESE,113,1.6,1.6,81,0.00,,,0.09,WUHU216HW,2013-07-27 22:27:00,
2013-07-27 18:32:00,82.6,76.0,29.92,ESE,113,1.1,1.6,80,0.00,,,0.09,WUHU216HW,2013-07-27 22:32:00,
2013-07-27 18:37:00,81.9,75.2,29.92,South,180,0.4,2.2,80,0.00,,,0.09,WUHU216HW,2013-07-27 22:37:00,
2013-07-27 18:42:00,81.5,74.9,29.92,SE,135,0.4,2.2,80,0.00,,,0.09,WUHU216HW,2013-07-27 22:42:00,
2013-07-27 18:47:00,81.4,74.4,29.92,ENE,68,0.4,1.8,79,0.00,,,0.09,WUHU216HW,2013-07-27 22:47:00,
2013-07-27 18:52:00,81.2,74.9,29.92,SE,135,1.1,1.8,81,0.00,,,0.09,WUHU216HW,2013-07-27 22:52:00,
2013-07-27 18:57:00,81.4,75.4,29.92,East,90,1.1,1.6,82,0.00,,,0.09,WUHU216HW,2013-07-27 22:57:00,
2013-07-27 19:02:00,81.4,75.4,29.92,SE,135,1.1,1.1,82,0.00,,,0.09,WUHU216HW,2013-07-27 23:02:00,
2013-07-27 19:07:00,81.2,74.9,29.92,SSE,158,2.5,2.5,81,0.00,,,0.09,WUHU216HW,2013-07-27 23:07:00,
2013-07-27 19:12:00,81.2,74.9,29.93,SSW,203,1.8,2.5,81,0.00,,,0.09,WUHU216HW,2013-07-27 23:12:00,
2013-07-27 19:17:00,81.2,75.3,29.92,ESE,113,0.9,1.8,82,0.00,,,0.09,WUHU216HW,2013-07-27 23:17:00,
2013-07-27 19:22:00,81.0,75.1,29.92,ESE,113,0.0,0.9,82,0.00,,,0.09,WUHU216HW,2013-07-27 23:22:00,
2013-07-27 19:27:00,81.0,75.1,29.92,SSE,158,0.9,1.8,82,0.00,,,0.09,WUHU216HW,2013-07-27 23:27:00,
2013-07-27 19:32:00,81.0,75.3,29.92,South,180,1.1,1.8,83,0.00,,,0.09,WUHU216HW,2013-07-27 23:32:00,
2013-07-27 19:37:00,80.8,75.2,29.92,SSW,203,0.9,1.1,83,0.00,,,0.09,WUHU216HW,2013-07-27 23:37:00,
2013-07-27 19:42:00,80.6,75.0,29.93,SSW,203,0.0,0.9,83,0.00,,,0.09,WUHU216HW,2013-07-27 23:42:00,
2013-07-27 19:47:00,80.6,75.3,29.93,SSW,203,0.0,0.7,84,0.00,,,0.09,WUHU216HW,2013-07-27 23:47:00,
2013-07-27 19:52:00,80.5,75.2,29.93,SSW,203,0.0,0.0,84,0.00,,,0.09,WUHU216HW,2013-07-27 23:52:00,
2013-07-27 19:57:00,80.1,75.2,29.93,SSE,158,0.7,0.7,85,0.00,,,0.09,WUHU216HW,2013-07-27 23:57:00,
2013-07-27 20:02:00,79.9,75.0,29.93,SE,135,0.2,0.9,85,0.00,,,0.09,WUHU216HW,2013-07-28 00:02:00,
2013-07-27 20:07:00,79.9,75.0,29.93,SSE,158,0.4,0.9,85,0.00,,,0.09,WUHU216HW,2013-07-28 00:07:00,
2013-07-27 20:12:00,79.7,74.9,29.93,SSE,158,0.0,0.7,85,0.00,,,0.09,WUHU216HW,2013-07-28 00:12:00,
2013-07-27 20:17:00,79.6,75.1,29.93,East,90,0.7,0.7,86,0.00,,,0.09,WUHU216HW,2013-07-28 00:17:00,
2013-07-27 20:22:00,79.6,75.1,29.93,East,90,0.0,0.7,86,0.00,,,0.09,WUHU216HW,2013-07-28 00:22:00,
2013-07-27 20:27:00,79.2,75.1,29.93,SE,135,0.0,0.0,87,0.00,,,0.09,WUHU216HW,2013-07-28 00:27:00,
2013-07-27 20:32:00,79.0,75.3,29.94,NW,315,0.4,0.4,88,0.00,,,0.09,WUHU216HW,2013-07-28 00:32:00,
2013-07-27 20:37:00,78.8,75.1,29.93,West,270,0.0,0.4,88,0.00,,,0.09,WUHU216HW,2013-07-28 00:37:00,
2013-07-27 20:42:00,78.8,75.1,29.93,West,270,0.0,0.0,88,0.00,,,0.09,WUHU216HW,2013-07-28 00:42:00,
2013-07-27 21:00:00,78.5,74.7,29.94,WSW,248,0.0,0.0,88,0.00,,,0.09,WUHU216HW,2013-07-28 01:00:00,
2013-07-27 21:24:00,77.6,74.2,29.95,WSW,248,0.0,0.0,89,0.00,,,0.09,WUHU216HW,2013-07-28 01:24:00,
2013-07-27 21:29:00,77.4,74.0,29.95,SW,225,0.0,0.0,89,0.00,,,0.09,WUHU216HW,2013-07-28 01:29:00,
2013-07-27 21:34:00,77.4,74.0,29.96,North,0,2.5,2.9,89,0.00,,,0.09,WUHU216HW,2013-07-28 01:34:00,
2013-07-27 21:39:00,77.2,73.8,29.96,North,0,0.7,2.9,89,0.00,,,0.09,WUHU216HW,2013-07-28 01:39:00,
2013-07-27 21:44:00,77.2,73.8,29.96,North,0,0.7,1.1,89,0.00,,,0.09,WUHU216HW,2013-07-28 01:44:00,
2013-07-27 21:56:00,77.0,73.6,29.95,NNE,23,0.2,0.2,89,0.00,,,0.09,WUHU216HW,2013-07-28 01:56:00,
2013-07-27 22:02:00,77.0,73.6,29.95,NNE,23,0.7,1.3,89,0.00,,,0.09,WUHU216HW,2013-07-28 02:02:00,
2013-07-27 22:07:00,77.0,73.6,29.95,NNE,23,0.0,1.3,89,0.00,,,0.09,WUHU216HW,2013-07-28 02:07:00,
2013-07-27 22:12:00,77.0,73.6,29.95,NNE,23,0.0,0.0,89,0.00,,,0.09,WUHU216HW,2013-07-28 02:12:00,
2013-07-27 22:17:00,76.9,73.4,29.95,NNE,23,1.1,1.1,89,0.00,,,0.09,WUHU216HW,2013-07-28 02:17:00,
2013-07-27 22:22:00,76.9,73.4,29.95,NNE,23,0.0,1.1,89,0.00,,,0.09,WUHU216HW,2013-07-28 02:22:00,
2013-07-27 22:27:00,76.9,73.8,29.95,NNE,23,0.0,0.0,90,0.00,,,0.09,WUHU216HW,2013-07-28 02:27:00,
2013-07-27 22:32:00,76.5,73.4,29.95,NNE,23,0.0,0.0,90,0.00,,,0.09,WUHU216HW,2013-07-28 02:32:00,
2013-07-27 22:37:00,76.5,73.4,29.95,NNE,23,0.0,0.0,90,0.00,,,0.09,WUHU216HW,2013-07-28 02:37:00,
2013-07-27 22:42:00,76.5,73.4,29.96,WNW,293,0.0,0.0,90,0.00,,,0.09,WUHU216HW,2013-07-28 02:42:00,
2013-07-27 22:47:00,76.3,73.5,29.95,WNW,293,0.0,0.0,91,0.00,,,0.09,WUHU216HW,2013-07-28 02:47:00,
2013-07-27 22:52:00,76.3,73.5,29.95,NW,315,0.0,0.0,91,0.00,,,0.09,WUHU216HW,2013-07-28 02:52:00,
2013-07-27 22:57:00,76.3,73.5,29.95,NW,315,0.0,0.0,91,0.00,,,0.09,WUHU216HW,2013-07-28 02:57:00,
2013-07-27 23:02:00,76.0,73.2,29.95,NW,315,0.0,0.0,91,0.00,,,0.09,WUHU216HW,2013-07-28 03:02:00,
2013-07-27 23:07:00,76.0,73.2,29.95,North,0,0.0,0.0,91,0.00,,,0.09,WUHU216HW,2013-07-28 03:07:00,
2013-07-27 23:12:00,76.0,73.2,29.95,North,0,0.0,0.0,91,0.00,,,0.09,WUHU216HW,2013-07-28 03:12:00,
2013-07-27 23:17:00,76.0,73.2,29.95,WNW,293,0.0,0.0,91,0.00,,,0.09,WUHU216HW,2013-07-28 03:17:00,
2013-07-27 23:22:00,76.0,73.2,29.95,NW,315,0.0,0.0,91,0.00,,,0.09,WUHU216HW,2013-07-28 03:22:00,
2013-07-27 23:27:00,75.8,73.0,29.95,NW,315,0.0,0.0,91,0.00,,,0.09,WUHU216HW,2013-07-28 03:27:00,
2013-07-27 23:32:00,75.8,73.0,29.95,NW,315,0.0,0.0,91,0.00,,,0.09,WUHU216HW,2013-07-28 03:32:00,
2013-07-27 23:37:00,75.8,73.0,29.95,NW,315,0.0,0.0,91,0.00,,,0.09,WUHU216HW,2013-07-28 03:37:00,
2013-07-27 23:42:00,75.4,73.0,29.95,NW,315,0.0,0.0,92,0.00,,,0.09,WUHU216HW,2013-07-28 03:42:00,
2013-07-27 23:47:00,75.4,73.0,29.95,NW,315,0.0,0.0,92,0.00,,,0.09,WUHU216HW,2013-07-28 03:47:00,
2013-07-27 23:57:00,75.4,73.0,29.94,NW,315,0.0,0.0,92,0.00,,,0.09,WUHU216HW,2013-07-28 03:57:00,